Flag for Germany Weather past 2 weeks in Wermelskirchen, North Rhine-Westphalia, Germany

Now
52 °F

Broken clouds.


Feels Like: 49 °F
Forecast: 40 / 51 °F
Wind: 7 mph from Southwest

Location: Koeln / Bonn

Current Time: Dec 18, 2014 at 12:42:48 PM

Latest Report: Dec 18, 2014 at 12:20 PM


Visibility: N/A

Pressure: 29.89 "Hg

Humidity: 94%

Dew point: 50 °F

Location of WermelskirchenLocation

Historic Weather in Wermelskirchen — Graph

°F

Wermelskirchen temperature yesterday

Maximum temperature yesterday: 50 °F (at 9:50 PM)
Minimum temperature yesterday: 37 °F (at 12:20 AM)
Average temperature yesterday: 42 °F

Past Weeks' High & Low Weather Summary

 TemperatureHumidityPressure
High52 °F (Dec 12, 1:50 PM)100% (Dec 7, 12:20 AM)30.39 "Hg (Dec 7, 12:20 AM)
Low30 °F (Dec 14, 10:50 PM)66% (Dec 7, 12:20 PM)29.45 "Hg (Dec 12, 5:20 PM)
Average40 °F87%29.99 "Hg
* Reported Dec 3 11:20 AM — Dec 18 11:20 AM, Wermelskirchen, Weather by CustomWeather, © 2014

Note: Actual official high and low records may vary slightly from our data, if they occured in-between our weather recording intervals... More about our weather records

Advertising

Wermelskirchen weather history for previous 24 hours

 ConditionsComfort  
Time TempWeatherWind HumidityBarometerVisibility
11:20 AM
Dec 18
50 °FMixture of precip. Partly sunny.7 mph100%29.89 "HgN/A
10:50 AM50 °FDrizzle. Mostly cloudy.7 mph100%29.89 "Hg2 mi
10:20 AM50 °FDrizzle. Partly sunny.7 mph94%29.89 "Hg3 mi
9:50 AM50 °FDrizzle. Partly sunny.5 mph94%29.86 "HgN/A
9:20 AM50 °FDrizzle. Partly sunny.7 mph94%29.86 "HgN/A
8:50 AM50 °FPartly sunny.8 mph94%29.86 "HgN/A
8:20 AM50 °FPassing clouds.5 mph94%29.86 "HgN/A
7:50 AM50 °FDrizzle. Mostly cloudy.5 mph94%29.86 "Hg4 mi
7:20 AM50 °FPassing clouds.8 mph94%29.86 "HgN/A
6:50 AM50 °FPassing clouds.8 mph94%29.83 "HgN/A
6:20 AM50 °FDrizzle. Overcast.9 mph94%29.86 "HgN/A
5:50 AM50 °FDrizzle. Low clouds.9 mph88%29.83 "HgN/A
5:20 AM50 °FDrizzle. Overcast.9 mph88%29.83 "HgN/A
4:20 AM50 °FOvercast.10 mph88%29.86 "HgN/A
3:50 AM50 °FMostly cloudy.9 mph88%29.86 "HgN/A
3:20 AM48 °FOvercast.9 mph94%29.86 "HgN/A
2:50 AM50 °FMostly cloudy.7 mph94%29.86 "HgN/A
2:20 AM48 °FPassing clouds.8 mph100%29.86 "Hg6 mi
1:50 AM50 °FPartly cloudy.7 mph94%29.86 "Hg4 mi
1:20 AM50 °FPassing clouds.10 mph94%29.86 "Hg5 mi
12:50 AM50 °FPartly cloudy.8 mph94%29.86 "Hg5 mi
12:20 AM50 °FDrizzle. Fog.8 mph94%29.86 "Hg2 mi
11:20 PM
Dec 17
50 °FDrizzle. Fog.8 mph94%29.83 "Hg2 mi
10:50 PM50 °FDrizzle. Fog.9 mph94%29.83 "Hg2 mi
10:20 PM50 °FDrizzle. Fog.9 mph94%29.80 "Hg2 mi
9:50 PM50 °FDrizzle. Fog.9 mph94%29.80 "Hg2 mi
9:20 PM48 °FDrizzle. Fog.10 mph100%29.80 "Hg2 mi
8:50 PM48 °FDrizzle. Fog.9 mph100%29.80 "Hg2 mi
8:20 PM48 °FPartly cloudy.8 mph94%29.77 "Hg4 mi
7:50 PM48 °FPartly cloudy.7 mph94%29.77 "Hg5 mi
7:20 PM48 °FPartly cloudy.8 mph94%29.74 "Hg5 mi
6:50 PM48 °FPartly cloudy.7 mph94%29.74 "Hg6 mi
6:20 PM48 °FPassing clouds.8 mph94%29.71 "Hg6 mi
5:50 PM46 °FDrizzle. Mostly cloudy.8 mph100%29.71 "HgN/A
5:20 PM46 °FMostly cloudy.8 mph100%29.71 "HgN/A
4:50 PM46 °FPassing clouds.8 mph93%29.68 "HgN/A
4:20 PM45 °FDrizzle. Broken clouds.7 mph100%29.68 "Hg4 mi
3:50 PM45 °FDrizzle. Fog.5 mph93%29.68 "Hg2 mi
3:20 PM45 °FDrizzle. Broken clouds.7 mph93%29.65 "Hg2 mi
2:50 PM43 °FDrizzle. Partly sunny.6 mph93%29.65 "Hg2 mi
2:20 PM43 °FDrizzle. Partly sunny.7 mph93%29.65 "Hg5 mi
1:50 PM43 °FDrizzle. Partly sunny.7 mph93%29.65 "Hg2 mi
1:20 PM41 °FRain. Broken clouds.7 mph93%29.65 "Hg5 mi
12:50 PM41 °FRain. Broken clouds.7 mph93%29.65 "Hg5 mi
12:20 PM41 °FDrizzle. Broken clouds.7 mph93%29.65 "Hg4 mi
Weather by CustomWeather, © 2014

See weather overviewHow to use our weather pages